,,,PA_Meas_PMT16A,,PR_Meas_QMR101_102,,RH_Meas_QMH101,,SR_Meas_QMS101,,TA_Meas_QMH101,,GenWind,,GenWind,
date,time,status,PA,status,PR,status,RH,status,SR,status,TA,status,DirAvg,status,SpdAvg,
2010-06-21, 00:00:04,VALID,1004.47,VALID,0,VALID,98.7406,VALID,0,VALID,25.5142,VALID,359,VALID,0.704687,
2010-06-21, 00:01:04,VALID,1004.48,VALID,0,VALID,98.6185,VALID,0,VALID,25.5337,VALID,358,VALID,0.857813,
2010-06-21, 00:02:04,VALID,1004.45,VALID,0,VALID,98.5575,VALID,0,VALID,25.5532,VALID,22,VALID,0.435547,
2010-06-21, 00:03:04,VALID,1004.44,VALID,0,VALID,98.5117,VALID,0,VALID,25.5727,VALID,357,VALID,0.48125,
2010-06-21, 00:04:04,VALID,1004.43,VALID,0,VALID,98.466,VALID,0,VALID,25.5921,VALID,357,VALID,0.421484,
2010-06-21, 00:05:04,VALID,1004.36,VALID,0,VALID,98.588,VALID,0,VALID,25.6292,VALID,18,VALID,0.944531,
2010-06-21, 00:06:04,VALID,1004.36,VALID,0,VALID,98.3134,VALID,0,VALID,25.7285,VALID,5,VALID,0.689844,
2010-06-21, 00:07:04,VALID,1004.32,VALID,0,VALID,97.6954,VALID,0,VALID,25.7674,VALID,357,VALID,0.692578,
2010-06-21, 00:08:04,VALID,1004.31,VALID,0,VALID,97.2377,VALID,0,VALID,25.746,VALID,350,VALID,0.348828,
2010-06-21, 00:09:04,VALID,1004.27,VALID,0,VALID,96.7418,VALID,0,VALID,25.7655,VALID,350,VALID,0.173047,
2010-06-21, 00:10:04,VALID,1004.28,VALID,0,VALID,96.3909,VALID,0,VALID,25.7265,VALID,350,VALID,0.482422,
2010-06-21, 00:11:04,VALID,1004.23,VALID,0,VALID,97.1462,VALID,0,VALID,25.7285,VALID,348,VALID,0.801953,
2010-06-21, 00:12:04,VALID,1004.23,VALID,0,VALID,97.3293,VALID,0,VALID,25.7285,VALID,332,VALID,0.695703,
2010-06-21, 00:13:04,VALID,1004.23,VALID,0,VALID,97.2987,VALID,0,VALID,25.709,VALID,22,VALID,0.777344,
2010-06-21, 00:14:04,VALID,1004.22,VALID,0,VALID,97.2377,VALID,0,VALID,25.6895,VALID,12,VALID,0.721094,
2010-06-21, 00:15:04,VALID,1004.21,VALID,0,VALID,97.642,VALID,0,VALID,25.6681,VALID,11,VALID,1.32578,
2010-06-21, 00:16:04,VALID,1004.18,VALID,0,VALID,97.9396,VALID,0,VALID,25.7655,VALID,357,VALID,1.05117,
2010-06-21, 00:17:04,VALID,1004.18,VALID,0,VALID,97.4284,VALID,0,VALID,25.8434,VALID,1,VALID,1.03828,
2010-06-21, 00:18:04,VALID,1004.17,VALID,0,VALID,96.5359,VALID,0,VALID,25.9232,VALID,356,VALID,0.525,
2010-06-21, 00:19:04,VALID,1004.18,VALID,0,VALID,93.7895,VALID,0,VALID,25.9602,VALID,7,VALID,0.743359,
2010-06-21, 00:20:04,VALID,1004.16,VALID,0,VALID,93.7589,VALID,0,VALID,26.0012,VALID,352,VALID,1.12695,
2010-06-21, 00:21:04,VALID,1004.17,VALID,0,VALID,93.1181,VALID,0,VALID,26.081,VALID,12,VALID,1.51133,
2010-06-21, 00:22:04,VALID,1004.15,VALID,0,VALID,91.0965,VALID,0,VALID,26.1765,VALID,25,VALID,1.08945,
2010-06-21, 00:23:04,VALID,1004.16,VALID,0,VALID,89.6546,VALID,0,VALID,26.2933,VALID,10,VALID,1.23711,
2010-06-21, 00:24:04,VALID,1004.14,VALID,0,VALID,88.8231,VALID,0,VALID,26.3323,VALID,344,VALID,0.708984,
2010-06-21, 00:25:04,VALID,1004.11,VALID,0,VALID,88.6094,VALID,0,VALID,26.3323,VALID,19,VALID,0.742188,
2010-06-21, 00:26:04,VALID,1004.09,VALID,0,VALID,88.4416,VALID,0,VALID,26.3303,VALID,15,VALID,1.41758,
2010-06-21, 00:27:04,VALID,1004.06,VALID,0,VALID,88.1517,VALID,0,VALID,26.4102,VALID,28,VALID,1.24336,
2010-06-21, 00:28:04,VALID,1004.08,VALID,0,VALID,87.8237,VALID,0,VALID,26.4492,VALID,15,VALID,0.822656,
2010-06-21, 00:29:04,VALID,1004.1,VALID,0,VALID,87.6711,VALID,0,VALID,26.4297,VALID,11,VALID,0.484766,
2010-06-21, 00:30:04,VALID,1004.08,VALID,0,VALID,87.6482,VALID,0,VALID,26.4102,VALID,355,VALID,0.664844,
2010-06-21, 00:31:04,VALID,1004.06,VALID,0,VALID,87.755,VALID,0,VALID,26.3518,VALID,354,VALID,0.393359,
2010-06-21, 00:32:04,VALID,1004.05,VALID,0,VALID,87.8542,VALID,0,VALID,26.2913,VALID,353,VALID,0.545703,
2010-06-21, 00:33:04,VALID,1004.04,VALID,0,VALID,88.2204,VALID,0,VALID,26.2544,VALID,359,VALID,0.326562,
2010-06-21, 00:34:04,VALID,1004.03,VALID,0,VALID,88.4035,VALID,0,VALID,26.2739,VALID,24,VALID,0.689062,
2010-06-21, 00:35:04,VALID,1004,VALID,0,VALID,88.4187,VALID,0,VALID,26.3128,VALID,14,VALID,1.55781,
2010-06-21, 00:36:04,VALID,1003.98,VALID,0,VALID,88.0296,VALID,0,VALID,26.3887,VALID,6,VALID,1.01094,
2010-06-21, 00:37:04,VALID,1003.94,VALID,0,VALID,87.7626,VALID,0,VALID,26.4297,VALID,1,VALID,1.25508,
2010-06-21, 00:38:04,VALID,1003.91,VALID,0,VALID,87.5567,VALID,0,VALID,26.4687,VALID,20,VALID,0.716797,
2010-06-21, 00:39:04,VALID,1003.87,VALID,0,VALID,87.3659,VALID,0,VALID,26.4687,VALID,10,VALID,0.469922,
2010-06-21, 00:40:04,VALID,1003.87,VALID,0,VALID,87.3736,VALID,0,VALID,26.4687,VALID,360,VALID,0.736719,
2010-06-21, 00:41:04,VALID,1003.84,VALID,0,VALID,87.4499,VALID,0,VALID,26.4082,VALID,66,VALID,0.930078,
2010-06-21, 00:42:04,VALID,1003.85,VALID,0,VALID,87.488,VALID,0,VALID,26.4102,VALID,16,VALID,0.999219,
2010-06-21, 00:43:04,VALID,1003.91,VALID,0,VALID,87.4575,VALID,0,VALID,26.3713,VALID,24,VALID,0.607422,
2010-06-21, 00:44:04,VALID,1003.89,VALID,0,VALID,87.7169,VALID,0,VALID,26.2913,VALID,24,VALID,0.369141,
2010-06-21, 00:45:04,VALID,1003.89,VALID,0,VALID,88.167,VALID,0,VALID,26.2154,VALID,26,VALID,1.0832,
2010-06-21, 00:46:04,VALID,1003.89,VALID,0,VALID,88.701,VALID,0,VALID,26.1765,VALID,357,VALID,0.610547,
2010-06-21, 00:47:04,VALID,1003.91,VALID,0,VALID,88.6247,VALID,0,VALID,26.157,VALID,10,VALID,0.262109,
2010-06-21, 00:48:04,VALID,1003.93,VALID,0,VALID,88.5484,VALID,0,VALID,26.1355,VALID,358,VALID,0.567578,
2010-06-21, 00:49:04,VALID,1003.91,VALID,0,VALID,88.6018,VALID,0,VALID,26.1375,VALID,356,VALID,0.165234,
2010-06-21, 00:50:04,VALID,1003.88,VALID,0,VALID,88.6628,VALID,0,VALID,26.0985,VALID,356,VALID,0.00273437,
2010-06-21, 00:51:04,VALID,1003.88,VALID,0,VALID,89.0138,VALID,0,VALID,26.0791,VALID,6,VALID,0.644141,
2010-06-21, 00:52:04,VALID,1003.87,VALID,0,VALID,89.1053,VALID,0,VALID,26.118,VALID,29,VALID,0.419922,
2010-06-21, 00:53:04,VALID,1003.86,VALID,0,VALID,89.0138,VALID,0,VALID,26.118,VALID,29,VALID,0.473828,
2010-06-21, 00:54:04,VALID,1003.85,VALID,0,VALID,89.0519,VALID,0,VALID,26.1395,VALID,360,VALID,0.695703,
2010-06-21, 00:55:04,VALID,1003.83,VALID,0,VALID,88.9833,VALID,0,VALID,26.0771,VALID,359,VALID,0.491016,
2010-06-21, 00:56:04,VALID,1003.84,VALID,0,VALID,88.9527,VALID,0,VALID,26.0791,VALID,359,VALID,0.354297,
2010-06-21, 00:57:04,VALID,1003.87,VALID,0,VALID,89.1664,VALID,0,VALID,26.0401,VALID,359,VALID,0.251953,
2010-06-21, 00:58:04,VALID,1003.89,VALID,0,VALID,89.3189,VALID,0,VALID,26.0012,VALID,359,VALID,0.259375,
2010-06-21, 00:59:04,VALID,1003.91,VALID,0,VALID,89.2732,VALID,0,VALID,25.9817,VALID,359,VALID,0.282422,
2010-06-21, 01:00:04,VALID,1003.88,VALID,0,VALID,89.4486,VALID,0,VALID,25.9018,VALID,359,VALID,0.298438,
2010-06-21, 01:01:04,VALID,1003.9,VALID,0,VALID,90.5777,VALID,0,VALID,25.8843,VALID,83,VALID,0.605859,
2010-06-21, 01:02:04,VALID,1003.91,VALID,0,VALID,90.3259,VALID,0,VALID,25.8453,VALID,83,VALID,0.296094,
2010-06-21, 01:03:04,VALID,1003.92,VALID,0,VALID,90.6998,VALID,0,VALID,25.7869,VALID,83,VALID,0.0765625,
2010-06-21, 01:04:04,VALID,1003.93,VALID,0,VALID,92.3857,VALID,0,VALID,25.748,VALID,83,VALID,0,
2010-06-21, 01:05:04,VALID,1003.94,VALID,0,VALID,95.3457,VALID,0,VALID,25.7071,VALID,83,VALID,0.272656,
2010-06-21, 01:06:04,VALID,1003.95,VALID,0,VALID,96.2688,VALID,0,VALID,25.7285,VALID,83,VALID,0.197266,
2010-06-21, 01:07:04,VALID,1003.95,VALID,0,VALID,96.2002,VALID,0,VALID,25.709,VALID,73,VALID,0.419531,
2010-06-21, 01:08:04,VALID,1003.92,VALID,0,VALID,96.4443,VALID,0,VALID,25.67,VALID,59,VALID,0.430078,
2010-06-21, 01:09:04,VALID,1003.92,VALID,0,VALID,96.9097,VALID,0,VALID,25.6895,VALID,52,VALID,0.645703,
2010-06-21, 01:10:04,VALID,1003.9,VALID,0,VALID,96.8715,VALID,0,VALID,25.6895,VALID,47,VALID,0.399219,
2010-06-21, 01:11:04,VALID,1003.87,VALID,0,VALID,96.4138,VALID,0,VALID,25.6915,VALID,358,VALID,0.651563,
2010-06-21, 01:12:04,VALID,1003.88,VALID,0,VALID,97.1156,VALID,0,VALID,25.67,VALID,40,VALID,0.400391,
2010-06-21, 01:13:04,VALID,1003.85,VALID,0,VALID,97.0012,VALID,0,VALID,25.67,VALID,40,VALID,0.291797,
2010-06-21, 01:14:04,VALID,1003.88,VALID,0,VALID,97.0012,VALID,0,VALID,25.67,VALID,40,VALID,0.402734,
2010-06-21, 01:15:04,VALID,1003.9,VALID,0,VALID,97.0088,VALID,0,VALID,25.672,VALID,40,VALID,0.45,
2010-06-21, 01:16:04,VALID,1003.85,VALID,0,VALID,97.0088,VALID,0,VALID,25.6116,VALID,40,VALID,0.300391,
2010-06-21, 01:17:04,VALID,1003.88,VALID,0,VALID,97.2301,VALID,0,VALID,25.5727,VALID,40,VALID,0.253516,
2010-06-21, 01:18:04,VALID,1003.86,VALID,0,VALID,97.6649,VALID,0,VALID,25.5921,VALID,40,VALID,0.473828,
2010-06-21, 01:19:04,VALID,1003.92,VALID,0,VALID,97.8709,VALID,0,VALID,25.6116,VALID,16,VALID,0.666797,
2010-06-21, 01:20:04,VALID,1003.95,VALID,0,VALID,97.9625,VALID,0,VALID,25.6506,VALID,9,VALID,0.891406,
2010-06-21, 01:21:04,VALID,1003.94,VALID,0,VALID,97.7641,VALID,0,VALID,25.6915,VALID,8,VALID,0.602344,
2010-06-21, 01:22:04,VALID,1003.95,VALID,0,VALID,97.6954,VALID,0,VALID,25.7285,VALID,350,VALID,1.09961,
2010-06-21, 01:23:04,VALID,1003.96,VALID,0,VALID,97.5276,VALID,0,VALID,25.785,VALID,6,VALID,0.787109,
2010-06-21, 01:24:04,VALID,1003.9,VALID,0,VALID,96.8563,VALID,0,VALID,25.8473,VALID,354,VALID,0.698438,
2010-06-21, 01:25:04,VALID,1003.88,VALID,0,VALID,95.7196,VALID,0,VALID,25.9232,VALID,18,VALID,0.480469,
2010-06-21, 01:26:04,VALID,1003.84,VALID,0,VALID,92.0806,VALID,0,VALID,26.0206,VALID,1,VALID,0.50625,
2010-06-21, 01:27:04,VALID,1003.8,VALID,0,VALID,90.7913,VALID,0,VALID,26.0596,VALID,4,VALID,0.564062,
2010-06-21, 01:28:04,VALID,1003.78,VALID,0,VALID,90.12,VALID,0,VALID,26.0381,VALID,12,VALID,0.765625,
2010-06-21, 01:29:04,VALID,1003.74,VALID,0,VALID,89.8682,VALID,0,VALID,26.1005,VALID,6,VALID,0.806641,
2010-06-21, 01:30:04,VALID,1003.75,VALID,0,VALID,89.6165,VALID,0,VALID,26.0966,VALID,358,VALID,0.537891,
2010-06-21, 01:31:04,VALID,1003.76,VALID,0,VALID,89.0672,VALID,0,VALID,26.118,VALID,358,VALID,0.491797,
2010-06-21, 01:32:04,VALID,1003.79,VALID,0,VALID,89.0748,VALID,0,VALID,26.0985,VALID,358,VALID,0.229297,
2010-06-21, 01:33:04,VALID,1003.75,VALID,0,VALID,89.2732,VALID,0,VALID,26.0596,VALID,45,VALID,0.271875,
2010-06-21, 01:34:04,VALID,1003.74,VALID,0,VALID,89.3494,VALID,0,VALID,26.0381,VALID,46,VALID,0.455469,
2010-06-21, 01:35:04,VALID,1003.71,VALID,0,VALID,89.2198,VALID,0,VALID,26.081,VALID,63,VALID,0.594141,
2010-06-21, 01:36:04,VALID,1003.7,VALID,0,VALID,89.2121,VALID,0,VALID,26.0206,VALID,67,VALID,0,
2010-06-21, 01:37:04,VALID,1003.67,VALID,0,VALID,89.3418,VALID,0,VALID,26.0596,VALID,113,VALID,0.8125,
2010-06-21, 01:38:04,VALID,1003.69,VALID,0,VALID,88.9451,VALID,0,VALID,26.0616,VALID,93,VALID,0.132031,
2010-06-21, 01:39:04,VALID,1003.65,VALID,0,VALID,88.9985,VALID,0,VALID,26.0401,VALID,93,VALID,0.0558594,
2010-06-21, 01:40:04,VALID,1003.65,VALID,0,VALID,89.1511,VALID,0,VALID,25.9817,VALID,88,VALID,0.0355469,
2010-06-21, 01:41:04,VALID,1003.66,VALID,0,VALID,89.2274,VALID,0,VALID,25.9232,VALID,88,VALID,0.0511719,
2010-06-21, 01:42:04,VALID,1003.65,VALID,0,VALID,89.4715,VALID,0,VALID,25.9038,VALID,88,VALID,0,
2010-06-21, 01:43:04,VALID,1003.66,VALID,0,VALID,89.8377,VALID,0,VALID,25.8648,VALID,88,VALID,0.00117188,
2010-06-21, 01:44:04,VALID,1003.66,VALID,0,VALID,90.1123,VALID,0,VALID,25.8473,VALID,77,VALID,0.0496094,
2010-06-21, 01:45:04,VALID,1003.67,VALID,0,VALID,91.0812,VALID,0,VALID,25.8064,VALID,50,VALID,0.462109,
2010-06-21, 01:46:04,VALID,1003.65,VALID,0,VALID,91.0354,VALID,0,VALID,25.785,VALID,67,VALID,0.0722656,
2010-06-21, 01:47:04,VALID,1003.63,VALID,0,VALID,91.1956,VALID,0.100563,VALID,25.785,VALID,67,VALID,0.253516,
2010-06-21, 01:48:04,VALID,1003.6,VALID,0,VALID,90.7074,VALID,0,VALID,25.7674,VALID,36,VALID,0.548828,
2010-06-21, 01:49:04,VALID,1003.56,VALID,0,VALID,90.654,VALID,0,VALID,25.6292,VALID,357,VALID,0.942969,
2010-06-21, 01:50:04,VALID,1003.54,VALID,0,VALID,95.7043,VALID,0.100563,VALID,25.5513,VALID,349,VALID,0.674609,
2010-06-21, 01:51:04,VALID,1003.5,VALID,0,VALID,97.1156,VALID,0.100563,VALID,25.4928,VALID,349,VALID,0.563672,
2010-06-21, 01:52:04,VALID,1003.5,VALID,0,VALID,97.5658,VALID,0.100563,VALID,25.4539,VALID,349,VALID,0.276563,
2010-06-21, 01:53:04,VALID,1003.48,VALID,0,VALID,97.3674,VALID,0,VALID,25.3779,VALID,349,VALID,0.376953,
2010-06-21, 01:54:04,VALID,1003.47,VALID,0,VALID,97.8251,VALID,0,VALID,25.3,VALID,11,VALID,0.498828,
2010-06-21, 01:55:04,VALID,1003.46,VALID,0,VALID,98.3439,VALID,0,VALID,25.3176,VALID,11,VALID,0.430078,
2010-06-21, 01:56:04,VALID,1003.5,VALID,0,VALID,98.3973,VALID,0,VALID,25.2981,VALID,11,VALID,0.280469,
2010-06-21, 01:57:04,VALID,1003.52,VALID,0,VALID,98.2981,VALID,0,VALID,25.2786,VALID,11,VALID,0.694922,
2010-06-21, 01:58:04,VALID,1003.48,VALID,0,VALID,98.2752,VALID,0,VALID,25.2592,VALID,31,VALID,0.199219,
2010-06-21, 01:59:04,VALID,1003.46,VALID,0,VALID,98.3439,VALID,0.100563,VALID,25.2397,VALID,31,VALID,0.278906,
2010-06-21, 02:00:04,VALID,1003.46,VALID,0,VALID,98.5423,VALID,0,VALID,25.2183,VALID,4,VALID,0.497656,
2010-06-21, 02:01:04,VALID,1003.43,VALID,0,VALID,98.7025,VALID,0,VALID,25.2806,VALID,9,VALID,0.346094,
2010-06-21, 02:02:04,VALID,1003.45,VALID,0,VALID,98.6567,VALID,0,VALID,25.2981,VALID,1,VALID,0.399219,
2010-06-21, 02:03:04,VALID,1003.43,VALID,0,VALID,98.5194,VALID,0,VALID,25.339,VALID,3,VALID,0.45,
2010-06-21, 02:04:04,VALID,1003.46,VALID,0,VALID,98.1761,VALID,0,VALID,25.3409,VALID,3,VALID,0.676953,
2010-06-21, 02:05:04,VALID,1003.45,VALID,0,VALID,98.1913,VALID,0,VALID,25.2416,VALID,356,VALID,0.333594,
2010-06-21, 02:06:04,VALID,1003.45,VALID,0,VALID,98.4126,VALID,0,VALID,25.2221,VALID,356,VALID,0.612109,
2010-06-21, 02:07:04,VALID,1003.5,VALID,0,VALID,98.527,VALID,0,VALID,25.1442,VALID,356,VALID,0.309375,
2010-06-21, 02:08:04,VALID,1003.49,VALID,0,VALID,98.6643,VALID,0,VALID,25.1053,VALID,351,VALID,0.739062,
2010-06-21, 02:09:04,VALID,1003.53,VALID,0,VALID,98.8703,VALID,0,VALID,25.1034,VALID,21,VALID,0.622656,
2010-06-21, 02:10:04,VALID,1003.54,VALID,0,VALID,98.9084,VALID,0,VALID,25.0858,VALID,30,VALID,0.611719,
2010-06-21, 02:11:04,VALID,1003.57,VALID,0,VALID,99.0839,VALID,0,VALID,25.1072,VALID,39,VALID,0.325391,
2010-06-21, 02:12:04,VALID,1003.58,VALID,0,VALID,99.122,VALID,0,VALID,25.0469,VALID,39,VALID,0.458984,
2010-06-21, 02:13:04,VALID,1003.56,VALID,0,VALID,99.0686,VALID,0,VALID,24.9885,VALID,39,VALID,0.115234,
2010-06-21, 02:14:04,VALID,1003.53,VALID,0,VALID,99.1678,VALID,0,VALID,25.0079,VALID,39,VALID,0,
2010-06-21, 02:15:04,VALID,1003.5,VALID,0,VALID,99.2822,VALID,0,VALID,25.0274,VALID,39,VALID,0.353906,
2010-06-21, 02:16:04,VALID,1003.48,VALID,0,VALID,99.3357,VALID,0,VALID,25.006,VALID,39,VALID,0,
2010-06-21, 02:17:04,VALID,1003.46,VALID,0,VALID,99.3585,VALID,0,VALID,25.0663,VALID,39,VALID,0.194922,
2010-06-21, 02:18:04,VALID,1003.44,VALID,0,VALID,99.3967,VALID,0,VALID,25.0858,VALID,39,VALID,0,
2010-06-21, 02:19:04,VALID,1003.44,VALID,0,VALID,99.3433,VALID,0,VALID,25.0663,VALID,39,VALID,0,
2010-06-21, 02:20:04,VALID,1003.45,VALID,0,VALID,99.2288,VALID,0,VALID,25.0663,VALID,39,VALID,0,
2010-06-21, 02:21:04,VALID,1003.46,VALID,0,VALID,99.1678,VALID,0,VALID,25.006,VALID,39,VALID,0,
2010-06-21, 02:22:04,VALID,1003.45,VALID,0,VALID,99.1373,VALID,0,VALID,25.0079,VALID,39,VALID,0,
2010-06-21, 02:23:04,VALID,1003.48,VALID,0,VALID,99.1907,VALID,0,VALID,25.0293,VALID,39,VALID,0.689453,
2010-06-21, 02:24:04,VALID,1003.49,VALID,0,VALID,99.1678,VALID,0,VALID,24.9476,VALID,38,VALID,0.433984,
2010-06-21, 02:25:04,VALID,1003.45,VALID,0,VALID,99.1983,VALID,0,VALID,24.93,VALID,38,VALID,0.336328,
2010-06-21, 02:26:04,VALID,1003.43,VALID,0,VALID,99.2441,VALID,0,VALID,24.9106,VALID,38,VALID,0,
2010-06-21, 02:27:04,VALID,1003.42,VALID,0,VALID,99.3128,VALID,0,VALID,24.8697,VALID,38,VALID,0,
2010-06-21, 02:28:04,VALID,1003.44,VALID,0,VALID,99.4653,VALID,0,VALID,24.8911,VALID,16,VALID,0.955469,
2010-06-21, 02:29:04,VALID,1003.46,VALID,0,VALID,99.4577,VALID,0,VALID,24.8308,VALID,16,VALID,0.441797,
2010-06-21, 02:30:04,VALID,1003.47,VALID,0,VALID,99.4882,VALID,0,VALID,24.8716,VALID,17,VALID,0.429297,
2010-06-21, 02:31:04,VALID,1003.44,VALID,0,VALID,99.5187,VALID,0,VALID,24.8716,VALID,17,VALID,0.334375,
2010-06-21, 02:32:04,VALID,1003.42,VALID,0,VALID,99.5721,VALID,0,VALID,24.8697,VALID,17,VALID,0.0476562,
2010-06-21, 02:33:04,VALID,1003.4,VALID,0,VALID,99.595,VALID,0,VALID,24.9106,VALID,17,VALID,0.44375,
2010-06-21, 02:34:04,VALID,1003.38,VALID,0,VALID,99.6179,VALID,0,VALID,24.9106,VALID,17,VALID,0.317578,
2010-06-21, 02:35:04,VALID,1003.41,VALID,0,VALID,99.6332,VALID,0,VALID,24.969,VALID,17,VALID,0.0222656,
2010-06-21, 02:36:04,VALID,1003.38,VALID,0,VALID,99.6255,VALID,0,VALID,24.9495,VALID,11,VALID,0.7125,
2010-06-21, 02:37:04,VALID,1003.39,VALID,0,VALID,99.6255,VALID,0,VALID,24.969,VALID,2,VALID,0.658984,
2010-06-21, 02:38:04,VALID,1003.41,VALID,0,VALID,99.6332,VALID,0,VALID,24.969,VALID,1,VALID,0.580859,
2010-06-21, 02:39:04,VALID,1003.39,VALID,0,VALID,99.6484,VALID,0,VALID,24.9885,VALID,1,VALID,0.398047,
2010-06-21, 02:40:04,VALID,1003.4,VALID,0,VALID,99.6484,VALID,0,VALID,24.9885,VALID,1,VALID,0.562109,
2010-06-21, 02:41:04,VALID,1003.39,VALID,0,VALID,99.6103,VALID,0,VALID,24.9495,VALID,1,VALID,0.532031,
2010-06-21, 02:42:04,VALID,1003.41,VALID,0,VALID,99.6255,VALID,0,VALID,24.9495,VALID,1,VALID,0.285547,
2010-06-21, 02:43:04,VALID,1003.4,VALID,0,VALID,99.5874,VALID,0,VALID,24.9282,VALID,12,VALID,0.548437,
2010-06-21, 02:44:04,VALID,1003.41,VALID,0,VALID,99.5874,VALID,0,VALID,24.9709,VALID,34,VALID,0.471875,
2010-06-21, 02:45:04,VALID,1003.43,VALID,0,VALID,99.5798,VALID,0,VALID,24.9476,VALID,43,VALID,0.704297,
2010-06-21, 02:46:04,VALID,1003.37,VALID,0,VALID,99.6027,VALID,0,VALID,24.9885,VALID,20,VALID,0.801953,
2010-06-21, 02:47:04,VALID,1003.38,VALID,0,VALID,99.6179,VALID,0.100563,VALID,25.0236,VALID,10,VALID,1.1207,
2010-06-21, 02:48:04,VALID,1003.33,VALID,0,VALID,99.6713,VALID,0,VALID,25.1813,VALID,12,VALID,1.10234,
2010-06-21, 02:49:04,VALID,1003.32,VALID,0,VALID,99.6027,VALID,0,VALID,25.2981,VALID,28,VALID,0.820313,
2010-06-21, 02:50:04,VALID,1003.31,VALID,0,VALID,99.328,VALID,0,VALID,25.4753,VALID,15,VALID,1.24375,
2010-06-21, 02:51:04,VALID,1003.34,VALID,0,VALID,98.7406,VALID,0,VALID,25.6895,VALID,30,VALID,1.18945,
2010-06-21, 02:52:04,VALID,1003.31,VALID,0,VALID,97.7565,VALID,0,VALID,25.7655,VALID,26,VALID,0.857031,
2010-06-21, 02:53:04,VALID,1003.31,VALID,0,VALID,94.6973,VALID,0,VALID,25.8453,VALID,41,VALID,0.439063,
2010-06-21, 02:54:04,VALID,1003.31,VALID,0,VALID,91.5389,VALID,0.100563,VALID,25.9038,VALID,28,VALID,1.16406,
2010-06-21, 02:55:04,VALID,1003.33,VALID,0,VALID,89.8758,VALID,0.100563,VALID,25.9797,VALID,17,VALID,1.59219,
2010-06-21, 02:56:04,VALID,1003.33,VALID,0,VALID,88.64,VALID,0,VALID,26.0576,VALID,19,VALID,1.48828,
2010-06-21, 02:57:04,VALID,1003.3,VALID,0,VALID,88.2433,VALID,0,VALID,26.0966,VALID,11,VALID,0.667578,
2010-06-21, 02:58:04,VALID,1003.31,VALID,0,VALID,88.1059,VALID,0,VALID,26.0771,VALID,4,VALID,0.427344,
2010-06-21, 02:59:04,VALID,1003.29,VALID,0,VALID,88.2967,VALID,0,VALID,26.0381,VALID,25,VALID,0.699219,
2010-06-21, 03:00:04,VALID,1003.34,VALID,0,VALID,88.2738,VALID,0,VALID,26.0012,VALID,16,VALID,1.00391,
2010-06-21, 03:01:04,VALID,1003.31,VALID,0,VALID,88.228,VALID,0,VALID,25.9408,VALID,9,VALID,0.524609,
2010-06-21, 03:02:04,VALID,1003.29,VALID,0,VALID,88.2356,VALID,0,VALID,25.9018,VALID,8,VALID,0.569531,
2010-06-21, 03:03:04,VALID,1003.31,VALID,0,VALID,88.022,VALID,0,VALID,25.8843,VALID,24,VALID,1.1168,
2010-06-21, 03:04:04,VALID,1003.31,VALID,0,VALID,87.7779,VALID,0,VALID,25.8434,VALID,30,VALID,0.909375,
2010-06-21, 03:05:04,VALID,1003.3,VALID,0,VALID,87.0684,VALID,0.100563,VALID,25.8434,VALID,79,VALID,1.02656,
2010-06-21, 03:06:04,VALID,1003.31,VALID,0,VALID,86.8929,VALID,0,VALID,25.8239,VALID,78,VALID,0.612109,
2010-06-21, 03:07:04,VALID,1003.32,VALID,0,VALID,85.7639,VALID,0,VALID,25.8239,VALID,77,VALID,0.675,
2010-06-21, 03:08:04,VALID,1003.3,VALID,0,VALID,85.4282,VALID,0.100563,VALID,25.8044,VALID,16,VALID,0.232031,
2010-06-21, 03:09:04,VALID,1003.26,VALID,0,VALID,84.8408,VALID,0,VALID,25.7655,VALID,83,VALID,0.845312,
2010-06-21, 03:10:04,VALID,1003.28,VALID,0,VALID,84.8942,VALID,0,VALID,25.7869,VALID,74,VALID,0.715234,
2010-06-21, 03:11:04,VALID,1003.29,VALID,0,VALID,84.0245,VALID,0,VALID,25.7674,VALID,89,VALID,1.18789,
2010-06-21, 03:12:04,VALID,1003.3,VALID,0,VALID,84.2991,VALID,0,VALID,25.7869,VALID,52,VALID,0.387891,
2010-06-21, 03:13:04,VALID,1003.27,VALID,0,VALID,84.4822,VALID,0,VALID,25.746,VALID,62,VALID,0.300391,
2010-06-21, 03:14:04,VALID,1003.27,VALID,0,VALID,83.7346,VALID,0,VALID,25.748,VALID,72,VALID,0.903906,
2010-06-21, 03:15:04,VALID,1003.27,VALID,0,VALID,83.6125,VALID,0,VALID,25.748,VALID,21,VALID,0.632031,
2010-06-21, 03:16:04,VALID,1003.25,VALID,0,VALID,83.5744,VALID,0,VALID,25.7265,VALID,64,VALID,0.700391,
2010-06-21, 03:17:04,VALID,1003.22,VALID,0,VALID,82.8725,VALID,0,VALID,25.7869,VALID,68,VALID,0.548828,
2010-06-21, 03:18:04,VALID,1003.22,VALID,0,VALID,83.1319,VALID,0,VALID,25.785,VALID,72,VALID,0.258203,
2010-06-21, 03:19:04,VALID,1003.23,VALID,0,VALID,83.1243,VALID,0,VALID,25.7655,VALID,72,VALID,0.653516,
2010-06-21, 03:20:04,VALID,1003.26,VALID,0,VALID,83.0251,VALID,0,VALID,25.7265,VALID,72,VALID,0.257813,
2010-06-21, 03:21:04,VALID,1003.19,VALID,0,VALID,82.9564,VALID,0,VALID,25.7285,VALID,79,VALID,0.604297,
2010-06-21, 03:22:04,VALID,1003.18,VALID,0,VALID,82.6742,VALID,0,VALID,25.709,VALID,54,VALID,0.916797,
2010-06-21, 03:23:04,VALID,1003.18,VALID,0,VALID,82.369,VALID,0,VALID,25.6876,VALID,69,VALID,1.30742,
2010-06-21, 03:24:04,VALID,1003.19,VALID,0,VALID,81.9265,VALID,0.100563,VALID,25.7265,VALID,85,VALID,1.1418,
2010-06-21, 03:25:04,VALID,1003.2,VALID,0,VALID,82.1859,VALID,0,VALID,25.748,VALID,98,VALID,0.463672,
2010-06-21, 03:26:04,VALID,1003.18,VALID,0,VALID,82.4758,VALID,0,VALID,25.7071,VALID,87,VALID,0.516016,
2010-06-21, 03:27:04,VALID,1003.14,VALID,0,VALID,82.575,VALID,0,VALID,25.6681,VALID,86,VALID,0.452734,
2010-06-21, 03:28:04,VALID,1003.12,VALID,0,VALID,82.5597,VALID,0,VALID,25.6311,VALID,115,VALID,0.961719,
2010-06-21, 03:29:04,VALID,1003.13,VALID,0,VALID,82.9336,VALID,0,VALID,25.6292,VALID,90,VALID,0.726563,
2010-06-21, 03:30:04,VALID,1003.13,VALID,0,VALID,83.048,VALID,0.100563,VALID,25.6097,VALID,86,VALID,0.618359,
2010-06-21, 03:31:04,VALID,1003.16,VALID,0,VALID,83.521,VALID,0.100563,VALID,25.5883,VALID,84,VALID,0.231641,
2010-06-21, 03:32:04,VALID,1003.17,VALID,0,VALID,83.2921,VALID,0.100563,VALID,25.5688,VALID,82,VALID,0.704687,
2010-06-21, 03:33:04,VALID,1003.16,VALID,0,VALID,83.4371,VALID,0.100563,VALID,25.6097,VALID,87,VALID,0.523438,
2010-06-21, 03:34:04,VALID,1003.16,VALID,0,VALID,83.6736,VALID,0.201126,VALID,25.6097,VALID,95,VALID,0.39375,
2010-06-21, 03:35:04,VALID,1003.21,VALID,0,VALID,83.7346,VALID,0.201126,VALID,25.6097,VALID,95,VALID,0.471094,
2010-06-21, 03:36:04,VALID,1003.24,VALID,0,VALID,84.0321,VALID,0.100563,VALID,25.6077,VALID,104,VALID,0.877344,
2010-06-21, 03:37:04,VALID,1003.25,VALID,0,VALID,83.9711,VALID,0.100563,VALID,25.6467,VALID,92,VALID,0.330859,
2010-06-21, 03:38:04,VALID,1003.27,VALID,0,VALID,84.1389,VALID,0.100563,VALID,25.6272,VALID,92,VALID,0.220703,
2010-06-21, 03:39:04,VALID,1003.27,VALID,0,VALID,84.3373,VALID,0.100563,VALID,25.6467,VALID,79,VALID,0.667188,
2010-06-21, 03:40:04,VALID,1003.29,VALID,0,VALID,84.5356,VALID,0.100563,VALID,25.6467,VALID,71,VALID,0.488281,
2010-06-21, 03:41:04,VALID,1003.25,VALID,0,VALID,84.8255,VALID,0.100563,VALID,25.6486,VALID,71,VALID,0.341016,
2010-06-21, 03:42:04,VALID,1003.28,VALID,0,VALID,85.0162,VALID,0.100563,VALID,25.6272,VALID,70,VALID,0.505078,
2010-06-21, 03:43:04,VALID,1003.25,VALID,0,VALID,85.1459,VALID,0.100563,VALID,25.6467,VALID,59,VALID,0.295703,
2010-06-21, 03:44:04,VALID,1003.27,VALID,0,VALID,85.4282,VALID,0.100563,VALID,25.709,VALID,77,VALID,0.408594,
2010-06-21, 03:45:04,VALID,1003.25,VALID,0,VALID,85.3214,VALID,0.100563,VALID,25.746,VALID,69,VALID,0.625,